Regional Weather Roundup
Issued by NWS

Home | Current Version | Previous Version | Text Only | Print | Product List | Glossary On
Versions: 1 2 3 4 5 6 7 8 9 10 11 12 13 14 15 16 17 18 19 20 21 22 23 24 25 26 27
000
ASUS45 KBOU 242007
RWRCO

WEATHER ROUNDUP FOR COLORADO
NATIONAL WEATHER SERVICE DENVER/BOULDER CO
200 PM MDT SUN JUL 24 2016

NOTE: "FAIR" INDICATES FEW OR NO CLOUDS BELOW 12000 FEET WITH NO
SIGNIFICANT WEATHER AND/OR OBSTRUCTIONS TO VISIBILITY.

COZ001>005-013-030-031-242100-
...NORTHWEST COLORADO...

CITY           SKY/WX    TMP DP  RH WIND       PRES   REMARKS
CRAIG          FAIR      89  34  14 VRB5      30.19F
HAYDEN         FAIR      82  37  20 N6        30.23F
MEEKER         FAIR      86  38  18 SW5       30.20F
MOUNT WERNER   NOT AVBL
STEAMBOAT SPGS FAIR      84  39  20 SW6       30.26F
WALDEN         FAIR      75  28  17 W16G22    30.37F
$$

COZ006>008-011-242100-
...WEST CENTRAL VALLEYS...

CITY           SKY/WX    TMP DP  RH WIND       PRES   REMARKS
GRAND JUNCTION FAIR      98  41  14 VRB5      30.06F
MONTROSE       LGT RAIN  87  42  20 SW8       30.16F
EAGLE          MOSUNNY   90  32  12 SW14G26   30.22F
RIFLE          FAIR      94  41  16 NW10      30.12F
DELTA          FAIR      98  36  11 CALM      30.10F
NUCLA          FAIR      90  36  14 N5        30.20F
$$

COZ017>023-064>068-242100-
...SOUTHWEST COLORADO...

CITY           SKY/WX    TMP DP  RH WIND       PRES   REMARKS
DURANGO        FAIR      91  36  14 W10       30.22F
CORTEZ         FAIR      93  42  17 MISG      30.16F
PAGOSA SPRINGS FAIR      86  26  11 NW14G22   30.33F
TELLURIDE      FAIR      71  41  34 SW3       30.49S
WOLF CREEK PAS FAIR      61  36  39 SW14G21   30.73F
$$

COZ009-010-012-014-032>034-037-058>063-242100-
...CENTRAL COLORADO...

CITY           SKY/WX    TMP DP  RH WIND       PRES   REMARKS
ASPEN          FAIR      85  32  15 NW8G17    30.32F
BUENA VISTA    FAIR      79  32  18 SE7       30.33F
COPPER MTN     PTSUNNY   64  23  20 NW13G22   30.72S
BERTHOUD PASS  PTSUNNY   54  39  58 NW9       30.74F
COTTONWOOD PAS FAIR      79  30  17 CALM      30.51F
GUNNISON       FAIR      84  34  16 N14       30.34F
KREMMLING      FAIR      81  32  17 CALM      30.32S
LEADVILLE      FAIR      70  29  21 MISG      30.50F
SALIDA         FAIR      88  39  17 E3        30.35F
SUNLIGHT       FAIR      72  43  35 CALM      30.62F
WILKERSON PASS FAIR      72  28  20 SW6       30.66F
$$

COZ069>075-242100-
...SAN LUIS VALLEY/SANGRE DE CRISTO MOUNTAINS...

CITY           SKY/WX    TMP DP  RH WIND       PRES   REMARKS
ALAMOSA        FAIR      88  43  20 W17G25    30.31F
LA VETA PASS   FAIR      73  45  35 NE8G18    30.56S
SAGUACHE       FAIR      81  36  19 SW8       30.34S
$$

COZ035-036-038>040-242100-
...NORTHERN COLORADO FRONT RANGE...

CITY           SKY/WX    TMP DP  RH WIND       PRES   REMARKS
DENVER INTL AP FAIR      94  39  14 VRB6      30.12F
DMNS CITY PARK   N/A     92  38  15 NE7       30.11F
AURORA         MOSUNNY   92  37  14 S7        30.14F
FRONT RANGE AP MOSUNNY   95  45  17 SE15G22   30.14F
ERIE MUNI ARPT FAIR      92  41  17 N9        30.11F
BOULDER MUN AP FAIR      88  50  27 N7        30.14S
CENTENNIAL     PTSUNNY   90  22   8 NW10G18   30.15F
BROOMFIELD     PTSUNNY   90  48  24 N10       30.17S
LONGMONT       FAIR      91  51  25 NW7       30.14F
$$

COZ041-046-047-076>085-087-088-242100-
...PIKES PEAK/PALMER DIVIDE AND SOUTHERN FOOTHILLS...

CITY           SKY/WX    TMP DP  RH WIND       PRES   REMARKS
COLO. SPRINGS  PTSUNNY   80  50  34 SE9       30.22F THUNDER
A. F. ACADEMY  PTSUNNY   82  48  30 S18       30.22F
SCHRIEVER AFB  NOT AVBL
ELLICOTT       FAIR     N/A N/A N/A CALM      30.21F
FALCON         FAIR      80  46  29 SE10      30.28F
FORT CARSON    MOSUNNY   89  46  22 NE10G16   30.18F
LIMON          FAIR      88  51  28 SE10G21   30.17F
MONUMENT HILL  FAIR      82  41  23 N5        30.27F
TRINIDAD       NOT AVBL
$$

COZ042>045-048>051-090-091-242100-
...NORTHEAST COLORADO...

CITY           SKY/WX    TMP DP  RH WIND       PRES   REMARKS
GREELEY ARPT   FAIR      84  61  45 E13       30.15R
AKRON          FAIR      83  59  44 SE20G29   30.15F
BURLINGTON     FAIR      91  55  29 E17       30.13S
WRAY           FAIR      88  52  29 SE17G28   30.11F
STERLING       FAIR      88  61  40 S12       30.10F
HOLYOKE        FAIR      86  55  35 W12       30.14R
FORT MORGAN    FAIR      87  56  34 SE17G25   30.13F
$$

COZ086-089-092>099-242100-
...SOUTHEAST COLORADO...

CITY           SKY/WX    TMP DP  RH WIND       PRES   REMARKS
PUEBLO         FAIR      93  52  24 SE14      30.09F
LA JUNTA       FAIR      88  60  38 E12       30.09F
LAMAR          FAIR      92  61  35 E5        30.05F
SPRINGFIELD      N/A     84  58  40 E10       30.11F
$$




USA.gov is the U.S. government's official web portal to all federal, state and local government web resources and services.